Weather History for KXNA - November, 2013

Change the Weather History Date:

Friday, November 29, 2013

  Actual Average Record
Temperature  
Mean Temperature 40 °F -  
Max Temperature 55 °F - - ()
Min Temperature 25 °F - - ()
Degree Days  
Heating Degree Days 25    
Moisture  
Dew Point 22 °F    
Average Humidity 59    
Maximum Humidity 88    
Minimum Humidity 25    
Precipitation  
Precipitation 0.00 in - - ()
Sea Level Pressure  
Sea Level Pressure 30.42 in    
Wind  
Wind Speed 3 mph (South)    
Max Wind Speed 12 mph    
Max Gust Speed -    
Visibility 10 miles    
Events      
T = Trace of Precipitation, MM = Missing Value Source: NWS Daily Summary

Daily Weather History Graph

Daily Weather History Graph

Search for Another Location

Airport or City:

Trip Planner

Search our weather history database for the weather conditions in past years. The results will help you decide how hot, cold, wet, or windy it might be!

Date:

Astronomy

Nov. 29, 2013 Rise Set
Actual Time 7:08 AM CST 5:02 PM CST
Civil Twilight 6:40 AM CST 5:30 PM CST
Nautical Twilight 6:08 AM CST 6:02 PM CST
Astronomical Twilight 5:37 AM CST 6:33 PM CST
Moon 3:20 AM CST (11/29) 2:42 PM CST (11/29)
Length of Visible Light 10h 50m
Length of Day
9h 54m
Waning Crescent, 14% of the Moon is Illuminated
Nov 29
Waning Crescent
Dec 2
New
Dec 9
First Quarter
Dec 17
Full
Dec 25
Last Quarter

Hourly Weather History & Observations

Time (CST) Temp. Windchill Dew Point Humidity Pressure Visibility Wind Dir Wind Speed Gust Speed Precip Events Conditions
12:53 AM 28.0 °F - 23.0 °F 81% 30.45 in 10.0 mi Calm Calm - N/A   Clear
1:53 AM 28.0 °F - 23.0 °F 81% 30.45 in 10.0 mi Calm Calm - N/A   Clear
2:53 AM 28.0 °F - 23.0 °F 81% 30.46 in 10.0 mi Calm Calm - N/A   Clear
3:53 AM 25.0 °F - 21.0 °F 85% 30.47 in 10.0 mi Calm Calm - N/A   Clear
4:53 AM 27.0 °F - 23.0 °F 85% 30.49 in 10.0 mi Calm Calm - N/A   Clear
5:53 AM 25.0 °F - 21.0 °F 85% 30.49 in 10.0 mi Calm Calm - N/A   Clear
6:53 AM 25.0 °F - 21.9 °F 88% 30.50 in 10.0 mi Calm Calm - N/A   Clear
7:53 AM 28.0 °F - 25.0 °F 88% 30.51 in 10.0 mi Calm Calm - N/A   Clear
8:53 AM 32.0 °F - 26.1 °F 79% 30.53 in 10.0 mi Calm Calm - N/A   Clear
9:53 AM 37.9 °F 35.5 °F 28.9 °F 70% 30.53 in 10.0 mi SE 3.5 mph - N/A   Clear
10:53 AM 46.0 °F 42.5 °F 26.1 °F 46% 30.51 in 10.0 mi Variable 6.9 mph - N/A   Clear
11:53 AM 48.9 °F - 26.1 °F 41% 30.47 in 10.0 mi SSE 6.9 mph - N/A   Clear
12:53 PM 52.0 °F - 24.1 °F 34% 30.44 in 10.0 mi South 9.2 mph - N/A   Clear
1:53 PM 54.0 °F - 21.9 °F 29% 30.40 in 10.0 mi SSW 11.5 mph - N/A   Clear
2:53 PM 55.0 °F - 19.9 °F 25% 30.38 in 10.0 mi South 9.2 mph - N/A   Clear
3:53 PM 52.0 °F - 19.0 °F 27% 30.36 in 10.0 mi South 9.2 mph - N/A   Clear
4:53 PM 48.0 °F - 18.0 °F 30% 30.35 in 10.0 mi South 9.2 mph - N/A   Clear
5:53 PM 44.1 °F 39.5 °F 17.1 °F 34% 30.35 in 10.0 mi SSW 8.1 mph - N/A   Clear
6:53 PM 39.9 °F 37.8 °F 18.0 °F 41% 30.36 in 10.0 mi South 3.5 mph - N/A   Clear
7:53 PM 39.0 °F 35.7 °F 21.0 °F 49% 30.35 in 10.0 mi SSE 4.6 mph - N/A   Clear
8:53 PM 34.0 °F 26.6 °F 21.9 °F 61% 30.34 in 10.0 mi SSE 9.2 mph - N/A   Clear
9:53 PM 37.0 °F 32.4 °F 23.0 °F 57% 30.33 in 10.0 mi SSW 5.8 mph - N/A   Clear
10:53 PM 36.0 °F 32.1 °F 24.1 °F 62% 30.34 in 10.0 mi SSW 4.6 mph - N/A   Clear
11:53 PM 37.0 °F 34.5 °F 23.0 °F 57% 30.34 in 10.0 mi SSW 3.5 mph - N/A   Clear